This demonstration page uses our WeatherBlox Daily Observations layout. Learn more.

Left ArrowRight Arrow

53.62937, 11.41316

Hourly Observations for December 27, 2018

Temp ( °F °C ) Dew Point ( °F °C ) Humidity (%) Winds ( mph kmh ) Pressure ( in mb ) Visibility ( mi km ) Precip ( " mm )
6:20 am 06:20 Cloudy with Drizzle 43 6 41 5 93 93 SW 9 15 30.21 1023 2 3 N/A
6:50 am 06:50 Cloudy with Drizzle 43 6 41 5 93 93 SW 10 17 30.21 1023 2 4 N/A
7:20 am 07:20 Cloudy with Drizzle 43 6 41 5 93 93 SW 9 15 30.21 1023 2 4 N/A
7:50 am 07:50 Cloudy with Drizzle 43 6 41 5 93 93 SW 9 15 30.21 1023 2 4 N/A
8:20 am 08:20 Cloudy with Drizzle 43 6 41 5 93 93 SW 12 19 30.21 1023 2 4 N/A
8:50 am 08:50 Cloudy with Drizzle 43 6 41 5 93 93 SW 12 19 30.21 1023 2 3 N/A
9:20 am 09:20 Cloudy with Mist and Fog 43 6 41 5 93 93 SW 12 19 30.21 1023 2 3 N/A
9:50 am 09:50 Cloudy with Mist and Fog 43 6 41 5 93 93 SW 12 19 30.21 1023 2 3 N/A
10:20 am 10:20 Cloudy with Mist and Fog 43 6 41 5 93 93 SW 12 19 30.21 1023 2 3 N/A
10:50 am 10:50 Cloudy with Mist and Fog 43 6 43 6 100 100 SW 13 20 30.21 1023 1 2 N/A
11:20 am 11:20 Cloudy with Mist and Fog 43 6 43 6 100 100 SW 10 17 30.21 1023 1 2 N/A
11:50 am 11:50 Cloudy with Mist and Fog 43 6 43 6 100 100 SW 12 19 30.21 1023 1 2 N/A
12:20 pm 12:20 Cloudy with Mist and Fog 43 6 43 6 100 100 SW 13 20 30.21 1023 1 2 N/A
12:50 pm 12:50 Cloudy with Mist and Fog 43 6 43 6 100 100 WSW 9 15 30.18 1022 2 3 N/A
1:20 pm 13:20 Cloudy with Mist and Fog 45 7 43 6 93 93 WSW 8 13 30.18 1022 2 3 N/A
1:50 pm 13:50 Mostly Cloudy with Mist and Fog 45 7 43 6 93 93 WSW 8 13 30.18 1022 2 4 N/A
2:20 pm 14:20 Cloudy with Mist and Fog 45 7 43 6 93 93 SW 9 15 30.18 1022 2 4 N/A
2:50 pm 14:50 Cloudy with Mist and Fog 45 7 43 6 93 93 SW 10 17 30.18 1022 2 4 N/A
3:20 pm 15:20 Cloudy with Mist and Fog 45 7 43 6 93 93 SW 10 17 30.18 1022 2 3 N/A
3:50 pm 15:50 Cloudy with Mist and Fog 45 7 43 6 93 93 SW 9 15 30.18 1022 2 3 N/A
4:20 pm 16:20 Cloudy with Mist and Fog 45 7 43 6 93 93 SW 12 19 30.18 1022 2 3 N/A
4:50 pm 16:50 Cloudy with Mist and Fog 45 7 43 6 93 93 SW 10 17 30.18 1022 1 2 N/A
5:20 pm 17:20 Cloudy with Mist and Fog 45 7 43 6 93 93 SW 9 15 30.18 1022 1 2 N/A
5:50 pm 17:50 Cloudy with Mist and Fog 45 7 43 6 93 93 SW 10 17 30.18 1022 1 2 N/A
6:20 pm 18:20 Cloudy with Mist and Fog 45 7 43 6 93 93 SW 9 15 30.18 1022 1 2 N/A
6:50 pm 18:50 Cloudy with Mist and Fog 45 7 43 6 93 93 SW 9 15 30.18 1022 1 2 N/A

Powered by AerisWeather